map of ORN home
Great Circle Mapper logo
ORN - Airport
Location
City:  Oran, Algeria
Name:Es SÚnia
ICAO / IATA:DAOO / ORN

Details
Type:Airport (Aerodrome, Airfield)
Latitude:35░37'38"N (35.627222)
Longitude:0░36'41"W (-0.611388)
Elevation:299 ft (91 m)
Runways:2
Longest:10039 × 148 ft (3060 × 45 m)

Time
Time Zone:UTC+1
Local Time:

Weather
METAR:DAOO 202030Z 03002KT CAVOK 23/11 Q1019
TAF:DAOO 200500Z 2006/2106 VRB02KT CAVOK
BECMG 2012/2015 02010KT
BECMG 2018/2020 VRB02KT

Related Locations
Nearby:
Farthest:NZOP: 12232 mi / 19686 km
Opotiki, NZ

Find:

   beyond  
but within

Other Information
Maps:
NOTAMs:
Links:
Sources:

  
flag of Algeria   

Sectional Chart

Flight Planning
at skyvector.com

Satellite Image

Google Maps Satellite View

 

Copyright © 2004-2014 Karl L. Swartz. All rights reserved.
The Great Circle Mapper name and logo are trademarks of the Great Circle Mapper.
All other trademarks mentioned herein belong to their respective owners.
Please see credits for attibutions and further copyright information.

  Follow gcmap on Facebook Follow gcmap on Twitter

hCard Microformat

Geo Microformat